Погода в Алор-Сетаре

Малайзия     6°07′02″N   100°22′11″E
В апреле 2022 года жителям России запретили посещать сайт meteo.paraplan.net по решению Генеральной прокуратуры. Аудитория сайта уменьшилась в 10 раз. Владельцы сайта не видят смысла в поддержке погодного сервера в таких условиях. Сайт будет закрыт в октябре.
темп.,
°C
ветер,
м/с
пор.,
м/с
влажн.,
%
обл.,
%
осадки,
мм/ч
давл.,
гПа
погр.,
м
25 сентября, вс
вс2523:00+28зюз237221 0.0 1010772
02:00+28юз23736 0.1 1009705
05:00+28ююз237689 0.4 1007539
08:00+27ю4579100 7.4 1009349
11:00+28ююз5671100 3.3 1011921
14:00+28юз457360 3.4 1009781
17:00+28зюз4475100 0.1 1007685
20:00+28зюз3371100 0.1 1009546
26 сентября, пн
пн2623:00+28зюз3368100 0.0 1011519
02:00+28юз2268100 0.0 1009622
05:00+28ююз2269100 0.0 1008615
08:00+28ю227199 0.0 1010552
11:00+28юв1174100 0.0 1011418
14:00+28з017299 0.0 1009369
17:00+29зсз226898 0.0 1007520
20:00+29зсз4469100 0.0 1009727
27 сентября, вт
вт2723:00+29сз3372100 0.8 1011570
02:00+28ссз337799 1.8 1009296
05:00+28сз2376100 2.1 1008476
08:00+27ссз2276100 4.9 1010176
11:00+27сз2275100 4.5 1011231
14:00+28з3371100 5.4 1009528
17:00+28сз2367100 0.0 1007701
20:00+28сз3468100 0.0 1008839
28 сентября, ср
ср2823:00+27ссз227597 1.0 1010172
02:00+28сз247599 2.1 1008664
05:00+27зсз4577100 4.1 1007583
08:00+28зсз5674100 7.3 1008836
11:00+27зсз5679100 7.0 1009538
14:00+27зсз5778100 14.1 1007738
17:00+27зсз7780100 3.3 1006611
20:00+28зсз7879100 8.6 1007823
29 сентября, чт
чт2923:00+28зсз6777100 4.0 1008784
02:00+28з7876100 10.4 1006900
05:00+29зсз8972100 4.3 10051155
08:00+29зсз787296 5.1 10061070
11:00+29зсз7873100 3.2 10081012
14:00+29зсз7877100 7.3 1006797
17:00+28зсз5677100 3.5 1004556
20:00+28зсз567892 6.6 1006514